Location: Nantong Television Tower
(32.0188°N, 120.8512°E)
Time: 15:56:37
(UTC+08:00)

Daily predictions for brighter satellites

Satellite Brightness Start Highest point End
(mag) Time Altitude Azimuth Time Altitude Azimuth Time Altitude Azimuth
FengYun 1-2 T 4.3 18:54:53 10° SSE 19:00:28 65° ENE 19:06:04 10° N
Cosmos 1707 Rocket 3.7 18:57:11 10° S 19:01:30 53° E 19:05:49 10° NNE
Sakura Rocket 4.2 18:59:06 10° SSW 19:01:52 20° SSE 19:04:58 10° ESE
Gblst 52 Del rocket 4.3 18:57:23 10° NW 19:03:16 71° NE 19:08:44 10° SE
Spot 2 Rocket 3.7 19:08:16 10° SSE 19:13:13 53° ENE 19:18:09 10° N
Cosmos 1892 2.6 19:09:24 10° N 19:13:13 87° E 19:17:01 10° S
Cosmos 1869 3.5 19:10:51 10° SSE 19:14:37 48° E 19:18:26 10° NNE
DELTA 2 R/B (1) 3.6 19:14:41 10° WNW 19:20:19 87° SSW 19:25:06 15° ESE
CZ-3B DEB 1.4 19:16:54 10° NW 19:20:44 45° WSW 19:22:48 11° SSE
SJ-6B 4.0 19:17:26 10° S 19:21:10 45° W 19:25:01 10° NNW
H-2A R/B 2.8 19:17:58 10° SSE 19:21:53 88° W 19:25:47 10° NNW
Cosmos 2227 4.3 19:17:58 10° NNW 19:23:39 59° ENE 19:29:11 10° SSE
ERBS 3.7 19:21:16 10° NNW 19:24:15 27° NE 19:26:13 16° E
HJ-1C 4.2 19:20:57 10° S 19:24:20 54° W 19:27:43 10° NNW
Cosmos 1869 Rocket 3.5 19:20:19 10° N 19:24:49 84° E 19:29:16 10° S
Resurs 1-3 3.6 19:20:44 10° SSE 19:25:04 67° ENE 19:29:26 10° N
GRACE-1 3.7 19:23:50 10° N 19:26:34 79° E 19:29:16 10° S
GRACE-2 3.7 19:24:13 10° N 19:26:57 78° E 19:29:39 10° S
Cosmos 1400 Rocket 3.8 19:24:41 10° NNW 19:28:28 48° W 19:32:16 10° S
Helios 1A 3.8 19:26:14 15° SE 19:29:12 33° ENE 19:33:00 10° N
Envisat 3.7 19:29:46 15° SE 19:33:17 34° ENE 19:37:51 10° N
Cosmos 2026 Rocket 4.2 19:30:38 10° N 19:36:37 48° E 19:41:58 12° SSE
ALOS 3.8 19:32:27 10° SSW 19:36:45 37° W 19:41:04 10° NNW
Atlas Centaur 2 2.8 19:31:21 10° WSW 19:37:50 60° SSE 19:44:33 15° E
Cosmos 1825 2.7 19:35:36 10° NNE 19:39:09 37° E 19:40:49 24° SE
Cosmos 2242 Rocket 3.5 19:35:51 10° S 19:40:21 70° E 19:44:50 10° NNE
GENESIS II 4.4 19:37:18 10° SSW 19:41:20 76° WNW 19:45:24 10° NNE
OTV 4 2.4 19:40:29 10° W 19:42:36 19° SSW 19:43:44 15° S
Cosmos 1315 Rocket 3.2 19:39:55 10° NNW 19:43:57 66° W 19:47:54 10° S
Cosmos 1933 3.8 19:42:43 20° SSE 19:44:58 38° E 19:48:43 10° NNE
SAR-Lupe-4 3.9 19:43:36 27° SE 19:45:09 45° ENE 19:48:35 10° N
CZ-2D R/B 3.6 19:41:25 10° S 19:45:17 68° W 19:49:10 10° NNW
CZ-4B DEB 3.4 19:47:05 32° E 19:47:16 32° ENE 19:50:01 10° N
SEDSat Delta rocket 3.5 19:44:12 10° WSW 19:49:21 79° S 19:53:18 21° E
Meteor 2-10 Rocket 4.4 19:46:23 19° SE 19:49:51 35° E 19:55:02 10° NNE
Cosmos 1634 Rocket 4.4 19:46:41 10° SSW 19:52:54 67° W 19:59:13 10° N
Meteor 2-20 Rocket 4.4 19:50:32 10° N 19:56:40 78° E 20:02:10 13° S
Resurs 01 Rocket 3.0 19:55:35 10° SSW 19:59:42 38° W 20:03:52 10° NNW
Cosmos 2263 Rocket 2.8 19:55:57 10° N 20:01:07 38° ENE 20:02:52 30° ESE
SAR-Lupe-1 3.9 20:01:40 46° SE 20:02:33 68° ENE 20:06:08 10° N
Cosmos 220 Rocket 4.0 19:58:19 10° NNW 20:02:47 89° ENE 20:04:55 30° SSE
ERS-1 Rocket 3.8 20:02:06 29° E 20:03:01 31° ENE 20:07:23 10° N
Cosmos 2322 Rocket 3.0 19:58:08 10° SW 20:03:33 52° WNW 20:09:02 10° N
Milstar 3 3.0 19:56:38 10° W 20:04:47 62° S 20:08:04 31° ESE
Cosmos 1408 2.5 20:01:16 10° N 20:04:57 85° W 20:06:21 36° S
COSMOS 2428 4.3 20:08:27 17° ENE 20:08:27 17° ENE 20:10:21 10° NE
USA 186 3.1 20:05:51 21° SW 20:07:01 31° W 20:09:34 10° NNW
OAO 3 Rocket 3.6 20:03:38 10° WNW 20:08:29 61° N 20:10:47 30° ENE
Cosmos 1862 3.2 20:06:15 10° N 20:10:16 67° E 20:11:01 53° SE
Cosmos 1655 Rocket 3.9 20:04:42 10° N 20:11:07 78° E 20:15:19 23° SSE
Cosmos 2360 Rocket 2.1 20:07:21 10° S 20:12:55 67° ESE 20:18:33 10° NNE
SeaSat 1 4.4 20:12:48 14° ENE 20:13:09 14° NE 20:15:39 10° NNE
Cosmos 1939 Rocket 2.8 20:18:34 54° S 20:19:27 88° W 20:23:29 10° NNW
DASH 4.1 20:20:25 10° W 20:23:53 20° SW 20:24:01 20° SSW
Cosmos 2322 3.6 20:18:37 10° S 20:24:17 72° ESE 20:29:59 10° NNE
Sich 1 Rocket 4.3 20:20:37 10° N 20:24:11 38° ENE 20:24:11 38° ENE
USA 234 3.5 20:22:28 35° E 20:25:01 55° NE 20:31:21 10° NNW
Cosmos 2266 Rocket 4.5 20:19:09 10° N 20:25:02 40° E 20:25:44 39° E
SJ-11-01 4.3 20:23:46 39° S 20:25:29 75° WSW 20:30:10 10° NNW
Helios 1B rocket 4.3 20:22:52 10° N 20:26:30 31° WNW 20:30:08 10° SW
Lacrosse 4 Rocket 1.7 20:23:51 10° NNW 20:28:11 67° WSW 20:28:56 55° SSW
Cosmos 1908 Rocket 4.2 20:26:27 10° N 20:29:44 40° NE 20:29:44 40° NE
SL-16 R/B 4.1 20:27:38 10° WSW 20:32:30 29° WNW 20:37:25 10° N
YAOGAN 6 3.3 20:34:46 48° N 20:34:46 48° N 20:37:28 10° N
ATLAS 5 CENTAUR R/B 2.9 20:32:16 10° NNW 20:38:09 45° ENE 20:39:02 43° E
ARGOS 3.9 20:43:09 38° NE 20:43:09 38° NE 20:47:29 10° N
Cosmos 489 Rocket 4.4 20:38:48 10° N 20:45:08 66° ENE 20:45:55 61° ESE
SPOT 5 3.8 20:48:10 36° NE 20:48:10 36° NE 20:51:27 10° N
Cosmos 1733 Rocket 4.4 20:45:46 10° NNW 20:49:51 36° W 20:51:06 30° SW
Cosmos 1844 Rocket 4.2 20:59:08 10° N 21:02:27 24° NE 21:02:27 24° NE
H-2A R/B 3.5 21:05:59 26° NNE 21:05:59 26° NNE 21:08:35 10° N
Cosmos 1867 4.0 21:01:46 10° NNW 21:06:17 55° NNE 21:06:17 55° NNE
Cosmos 968 Rocket 3.8 21:03:12 10° NNW 21:07:34 64° NNW 21:07:34 64° NNW
USA 229 DEB 4.2 21:03:37 10° SW 21:10:16 57° WNW 21:17:04 10° NNE
USA 229 4.2 21:03:42 10° SW 21:10:22 57° WNW 21:17:10 10° NNE
MetOp-A 4.4 21:15:42 64° WNW 21:15:42 64° WNW 21:20:27 10° NNW
Cosmos 2219 Rocket 4.1 21:21:41 19° NNE 21:21:41 19° NNE 21:23:13 10° NNE
Atlas Centaur 2 2.8 21:20:03 10° W 21:27:12 79° SSW 21:27:12 79° SSW
Terra 4.1 21:46:31 19° N 21:46:31 19° N 21:47:54 10° N
Cosmos 2263 Rocket 4.0 21:40:32 10° NW 21:44:35 22° W 21:44:35 22° W
COSMOS 2428 3.9 21:50:20 38° NW 21:50:20 38° NW 21:55:17 10° N
SeaSat 1 4.2 21:52:35 29° NW 21:52:35 29° NW 21:55:02 10° NNW
ATLAS 5 CENTAUR R/B 4.3 22:17:28 10° NW 22:20:36 23° W 22:20:36 23° W
Cosmos 2333 Rocket 4.2 22:32:58 24° N 22:32:58 24° N 22:35:26 10° N
Cosmos 2237 Rocket 4.4 22:37:02 20° N 22:37:02 20° N 22:38:42 10° N
CZ-4C R/B 3.8 22:30:44 10° NNW 22:35:40 41° N 22:35:40 41° N
Cosmos 2278 Rocket 4.3 22:37:00 10° NNW 22:38:53 22° NNW 22:38:53 22° NNW
ATLAS 2AS CENTAUR R/B 4.4 23:17:10 30° NE 23:17:10 30° NE 23:20:50 10° NNE
ATLAS 3B R/B 4.5 23:46:14 10° NNW 23:49:24 24° N 23:49:24 24° N
